Simultaneous Nadir Overpasses (SNOs) Predictions

Prediction of SNOs between METOP-B and NOAA-19 Satellite Orbit:

Table of predicted SNOs for the next 14.0 days since TLE Epoch: 3/3/2014
Index Date (METOP-B) Time (METOP-B) Lat,Lon (METOP-B) SZA (METOP-B ) Date (NOAA-19) Time (NOAA-19) Lat,Lon (NOAA-19) SZA (NOAA-19 ) Distance(km) Time Diff (sec)
1 03/03/2014 15:14:22 -73.82, 126.04 99.41 03/03/2014 15:13:07 -73.84, 125.77 99.36 8.53 75
2 03/03/2014 16:05:04 73.74, -66.82 80.51 03/03/2014 16:04:06 73.73, -66.71 80.51 3.63 58
3 03/03/2014 16:55:45 -73.75, 100.54 99.50 03/03/2014 16:55:09 -73.75, 100.49 99.49 1.47 36
4 03/03/2014 17:46:26 73.72, -92.21 80.47 03/03/2014 17:46:10 73.74, -92.23 80.49 2.00 16
5 03/03/2014 18:37:08 -73.69, 75.04 99.58 03/03/2014 18:37:12 -73.71, 75.08 99.57 2.74 4
6 03/03/2014 19:27:48 73.70,-117.59 80.42 03/03/2014 19:28:13 73.69,-117.64 80.41 1.91 25
7 03/03/2014 20:18:30 -73.67, 49.65 99.63 03/03/2014 20:19:15 -73.66, 49.68 99.64 1.04 45
8 03/03/2014 21:09:11 73.64,-143.09 80.33 03/03/2014 21:10:16 73.65,-143.05 80.34 2.11 65
9 03/03/2014 22:00:01 -73.20, 23.25 100.07 03/03/2014 22:01:10 -73.22, 25.19 100.14 62.21 69
10 03/13/2014 19:20:38 74.38,-114.19 77.12 03/13/2014 19:19:31 74.41,-117.14 77.27 88.42 67
11 03/13/2014 20:11:32 -73.78, 51.65 103.45 03/13/2014 20:10:23 -73.78, 51.72 103.44 2.50 69
12 03/13/2014 21:02:12 73.77,-141.04 76.53 03/13/2014 21:01:22 73.79,-141.05 76.56 1.79 50
13 03/13/2014 21:52:54 -73.76, 26.26 103.49 03/13/2014 21:52:27 -73.78, 26.19 103.47 2.91 27
14 03/13/2014 22:43:34 73.75,-166.43 76.49 03/13/2014 22:43:25 73.74,-166.46 76.49 1.15 9
15 03/13/2014 23:34:16 -73.74, 0.87 103.54 03/13/2014 23:34:30 -73.74, 0.78 103.54 2.86 14
16 03/14/2014 00:24:57 73.68, 168.06 76.40 03/14/2014 00:25:28 73.70, 168.13 76.41 3.04 31
17 03/14/2014 01:15:39 -73.67, -24.63 103.63 03/14/2014 01:16:33 -73.70, -24.63 103.62 2.38 54
18 03/14/2014 02:06:19 73.66, 142.68 76.35 03/14/2014 02:07:31 73.66, 142.72 76.34 1.23 72




NCC Satellite Simultaneous Nadir Overpasses (SNOs) Prediction Service
